Goodland, KS

12:14 PM MDT on September 29, 2016 (GMT -0600)
Renner-Goodland Municipal

Weather History for KGLD - January, 2013

Change the Weather History Date:

Tuesday, January 1, 2013

  Actual Average Record
Temperature  
Mean Temperature 16 °F 30 °F  
Max Temperature 26 °F 42 °F 70 °F (1997)
Min Temperature 6 °F 17 °F -15 °F (1928)
Degree Days  
Heating Degree Days 49 36  
Month to date heating degree days 49 36  
Since 1 July heating degree days 2317 2443  
Cooling Degree Days 0 0  
Month to date cooling degree days 0 0  
Year to date cooling degree days 0 0  
Moisture  
Dew Point 9 °F    
Average Humidity 75    
Maximum Humidity 92    
Minimum Humidity 57    
Precipitation  
Precipitation T in 0.01 in 0.24 in (1976)
Month to date precipitation T 0.01  
Year to date precipitation T 0.01  
Snow  
Snow 0.10 in 0.20 in - ()
Month to date snowfall 0.1 0.2  
Since 1 July snowfall 10.1 12.9  
Snow Depth 1.00 in    
Sea Level Pressure  
Sea Level Pressure 30.28 in    
Wind  
Wind Speed 9 mph (West)    
Max Wind Speed 23 mph    
Max Gust Speed 24 mph    
Visibility 10 miles    
Events Snow    
T = Trace of Precipitation, MM = Missing Value Source: NWS Daily Summary

Daily Weather History Graph

Daily Weather History Graph

Search for Another Location

Airport or City:

Trip Planner

Search our weather history database for the weather conditions in past years. The results will help you decide how hot, cold, wet, or windy it might be!

Date:

Astronomy

Jan. 01, 2013 Rise Set
Actual Time 7:06 AM MST 4:34 PM MST
Civil Twilight 6:36 AM MST 5:04 PM MST
Nautical Twilight 6:03 AM MST 5:38 PM MST
Astronomical Twilight 5:30 AM MST 6:10 PM MST
Moon 9:05 PM MST (1/1) 9:21 AM MST (1/1)
Length of Visible Light 10h 27m
Length of Day
9h 27m
Waning Gibbous, 83% of the Moon is Illuminated
Jan 1
Waning Gibbous
Jan 4
Last Quarter
Jan 11
New
Jan 18
First Quarter
Jan 26
Full

Hourly Weather History & Observations

Time (MST) Temp. Windchill Dew Point Humidity Pressure Visibility Wind Dir Wind Speed Gust Speed Precip Events Conditions
12:53 AM 14.0 °F - 10.9 °F 88% 30.24 in 7.0 mi Calm Calm - N/A   Overcast
1:53 AM 12.9 °F 5.2 °F 10.9 °F 92% 30.25 in 10.0 mi West 4.6 mph - N/A   Overcast
2:53 AM 14.0 °F 6.5 °F 10.9 °F 88% 30.24 in 3.0 mi WNW 4.6 mph - 0.00 in Snow Light Snow
3:53 AM 10.9 °F 1.4 °F 8.1 °F 88% 30.26 in 9.0 mi WNW 5.8 mph - 0.00 in   Overcast
4:53 AM 8.1 °F -4.3 °F 5.0 °F 87% 30.27 in 10.0 mi WNW 8.1 mph - N/A   Clear
5:53 AM 9.0 °F -3.2 °F 6.1 °F 88% 30.29 in 10.0 mi West 8.1 mph - N/A   Clear
6:53 AM 6.1 °F -4.3 °F 3.0 °F 87% 30.31 in 10.0 mi West 5.8 mph - N/A   Clear
7:53 AM 7.0 °F -6.6 °F 3.9 °F 87% 30.33 in 10.0 mi West 9.2 mph - N/A   Clear
8:53 AM 12.0 °F -0.4 °F 8.1 °F 84% 30.32 in 10.0 mi West 9.2 mph - N/A   Clear
9:53 AM 17.1 °F 5.8 °F 12.0 °F 81% 30.33 in 10.0 mi West 9.2 mph - N/A   Partly Cloudy
10:53 AM 23.0 °F 12.4 °F 16.0 °F 74% 30.33 in 10.0 mi West 10.4 mph - N/A   Mostly Cloudy
11:53 AM 25.0 °F 14.2 °F 17.1 °F 72% 30.29 in 10.0 mi WNW 11.5 mph - N/A   Partly Cloudy
12:53 PM 24.1 °F 14.4 °F 12.0 °F 60% 30.27 in 10.0 mi WNW 9.2 mph - N/A   Clear
1:53 PM 26.1 °F 17.6 °F 14.0 °F 60% 30.25 in 10.0 mi WNW 8.1 mph - N/A   Clear
2:53 PM 26.1 °F 17.6 °F 14.0 °F 60% 30.26 in 10.0 mi WNW 8.1 mph - N/A   Clear
3:53 PM 21.9 °F 12.5 °F 12.0 °F 66% 30.26 in 10.0 mi WNW 8.1 mph - N/A   Clear
4:53 PM 14.0 °F 3.9 °F 7.0 °F 74% 30.29 in 10.0 mi West 6.9 mph - N/A   Clear
5:53 PM 14.0 °F 2.0 °F 8.1 °F 77% 30.29 in 10.0 mi WSW 9.2 mph - N/A   Clear
6:53 PM 14.0 °F 1.2 °F 8.1 °F 77% 30.28 in 10.0 mi WSW 10.4 mph - N/A   Clear
7:53 PM 12.9 °F -0.2 °F 7.0 °F 77% 30.28 in 10.0 mi WSW 10.4 mph - N/A   Clear
8:53 PM 12.9 °F -0.9 °F 6.1 °F 74% 30.27 in 10.0 mi WSW 11.5 mph - N/A   Clear
9:53 PM 12.0 °F -2.0 °F 3.9 °F 70% 30.27 in 10.0 mi West 11.5 mph - N/A   Clear
10:53 PM 12.9 °F -1.6 °F 3.9 °F 67% 30.25 in 10.0 mi West 12.7 mph - N/A   Clear
11:53 PM 12.9 °F -1.6 °F 3.0 °F 65% 30.23 in 10.0 mi West 12.7 mph - N/A   Clear